NANOSATC-BR1

Last updated on Sun Dec 14 2025 00:03:49 GMT+0000 (Coordinated Universal Time)

1 40024U 14033Q 25347.31606175 .00028020 00000+0 11341-2 0 9994 2 40024 98.0911 359.0188 0005778 103.4904 256.6976 15.24651319625597
UTC large
Height (km)
Speed (km/s)
/
Latitude / Longitude
Inclination (degrees)
Orbital Period (minutes)
Azimuth
Elevation
Range (km)
Doppler Factor

Next 0 passes for location: London (51.5072 / 0.1276)

Sorry there are no passes over London.